Location: Recife
(8.0585°S, 34.8848°W)
Time: 06:14:44
(UTC-03:00)

Vanguard 1 - Pass Details

Date: 23 April 2026
Orbit: 654 x 3817 km, 34.2° (Epoch: 13 May)

Event Time Altitude Azimuth Distance (km) Brightness Sun altitude
Rises 21:27:46 0° 296° (WNW) 6,931 14.8 -62.6°
Reaches altitude 10° 21:37:12 10° 320° (NW) 6,515 14.4 -64.8°
Maximum altitude 21:45:47 13° 344° (NNW) 6,541 14.3 -66.9°
Drops below altitude 10° 21:54:54 10° 8° (N) 6,900 14.3 -69.1°
Sets 22:06:04 0° 32° (NNE) 7,661 14.6 -71.7°
